This is the latest recevied weather packets stored in our database for station/object HB9CYX-13. If no packets are shown the sender has not sent any weather packets the latest 10 day(s).
| Time | Temp. | Humidity | Pressure | Rain* | Wind** | Luminosity | Snow |
|---|---|---|---|---|---|---|---|
| 1777866288 | 10.56° C | 82% | 1017.4 hPa | 0 mm | - | - | - |
| 1777865551 | 10.56° C | 82% | 1017.5 hPa | 0 mm | - | - | - |
| 1777864814 | 10.56° C | 82% | 1017.5 hPa | 0 mm | - | - | - |
| 1777864076 | 11.11° C | 82% | 1017.6 hPa | 0 mm | - | - | - |
| 1777863339 | 10.56° C | 82% | 1017.7 hPa | 0 mm | - | - | - |
| 1777862602 | 11.11° C | 82% | 1017.7 hPa | 0 mm | - | - | - |
| 1777861865 | 11.11° C | 82% | 1017.7 hPa | 0 mm | - | - | - |
| 1777861128 | 11.11° C | 82% | 1017.6 hPa | 0 mm | - | - | - |
| 1777860390 | 11.11° C | 82% | 1017.5 hPa | 0 mm | - | - | - |
| 1777859653 | 11.11° C | 80% | 1017.4 hPa | 0 mm | - | - | - |
| 1777858915 | 11.11° C | 80% | 1017.5 hPa | 0 mm | - | - | - |
| 1777858178 | 10.56° C | 80% | 1017.6 hPa | 0 mm | - | - | - |
| 1777857441 | 11.11° C | 79% | 1017.6 hPa | 0 mm | - | - | - |
| 1777856704 | 11.11° C | 78% | 1017.5 hPa | 0 mm | - | - | - |
| 1777855967 | 11.11° C | 77% | 1017.6 hPa | 0 mm | - | - | - |
| 1777855230 | 11.11° C | 78% | 1017.6 hPa | 0 mm | - | - | - |
| 1777854492 | 11.11° C | 79% | 1017.7 hPa | 0 mm | - | - | - |
| 1777853755 | 11.67° C | 78% | 1017.6 hPa | 0 mm | - | - | - |
| 1777853018 | 11.67° C | 77% | 1017.7 hPa | 0 mm | - | - | - |
| 1777852281 | 11.67° C | 77% | 1017.7 hPa | 0 mm | - | - | - |
| 1777851543 | 11.67° C | 78% | 1017.8 hPa | 0 mm | - | - | - |
| 1777850806 | 12.22° C | 76% | 1017.7 hPa | 0 mm | - | - | - |
| 1777850069 | 12.22° C | 74% | 1017.8 hPa | 0 mm | - | - | - |
| 1777849332 | 12.78° C | 73% | 1017.8 hPa | 0 mm | - | - | - |
| 1777848594 | 12.78° C | 72% | 1017.6 hPa | 0 mm | - | - | - |
* Rain latest hour (hover to see other rain measurements)
** Current wind speed in m/s (hover to see current wind gust speed)